星链-2293 (STARLINK-2293 )

导读 | 星芒AI

STARLINK-2293 是 SpaceX Starlink 卫星互联网项目中的第2293颗卫星,属于低轨卫星群的一部分。该卫星于2023年发射,旨在为全球用户提供高速、低延迟的互联网服务。它运行在约550公里高的近地轨道,采用先进通信技术,支持宽带接入。Starlink 项目致力于覆盖偏远地区,提升全球网络连接能力。STARLINK-2293 的部署有助于增强系统冗余与信号稳定性,是 SpaceX 打造全球卫星互联网网络的重要一环。

基本信息
目录编号:
47863
目录名称:
STARLINK-2293
国际标识:
2021-021D
轨道中心:
EARTH
卫星名称:
星链-2293
卫星全名:
星链-2293 (STARLINK-2293 )
卫星状态:
已陨落 最后检测时间 2025-04-27
发射日期:
2021-03-14 UTC
国别 :
美国 (US)
星等 :
--
轨道信息
数据来源 国际轨道数据
星历时间: 2025-04-27T12:53:41+0800
轨道信息已过期186天
半长轴: 6526.551km
偏心率: 0.0005305
轨道倾角: 53.026°
近地点辐角 282.971°
升交点赤经 220.681°
平近点角 163.524°
近地点: 144.953km
远地点: 151.879km
周期: 87.455分钟
每日圈数: 16.465585
详细信息
固有亮度:
5
最大亮度:
2.5
卫星平台:
Starlink V1.0
覆盖范围:
全球
运营商:
太空探索技术公司
运营商所在国:
美国
制造商(研发单位):
太空探索技术公司
制造商所在国:
美国
使用方式:
暂无
卫星简介
星链(Starlink)计划是由太空探索技术公司(SpaceX)提出的一个巨型低轨卫星互联网星座项目,计划在2019年至2024年间在太空搭建由约1.2万颗卫星组成的“星链”网络,其中1584颗将部署在地球上空550千米处的近地轨道,并从2020年开始工作。该卫星仍在工作。